This demonstration page uses our WeatherBlox Daily Observations layout. Learn more.

Left ArrowRight Arrow

38.20091, -84.87328

Hourly Observations for August 5, 2017

Temp ( °F °C ) Dew Point ( °F °C ) Humidity (%) Winds ( mph kmh ) Pressure ( in mb ) Visibility ( mi km ) Precip ( " mm )
12:53 am 00:53 Clear 59 15 52 11.1 78 78 NW 3 6 30.05 1018 10 16 0.00 0.00
1:53 am 01:53 Clear 57 13.9 52 11.1 83 83 Calm 30.05 1018 10 16 0.00 0.00
2:53 am 02:53 Clear 56 13.3 51 10.6 84 84 WSW 3 6 30.05 1018 10 16 0.00 0.00
3:53 am 03:53 Clear 55 12.8 50 10 83 83 Calm 30.06 1018 10 16 0.00 0.00
4:53 am 04:53 Clear 54 12.2 50 10 87 87 Calm 30.08 1019 10 16 0.00 0.00
5:53 am 05:53 Clear 53 11.7 49 9.4 86 86 Calm 30.09 1019 10 16 0.00 0.00
6:53 am 06:53 Sunny 53 11.7 49 9.4 86 86 Calm 30.11 1020 10 16 0.00 0.00
7:53 am 07:53 Sunny 56 13.3 52 11.1 87 87 Calm 30.12 1020 10 16 0.00 0.00
8:53 am 08:53 Sunny 63 17.2 55 12.8 76 76 Calm 30.14 1021 10 16 0.00 0.00
9:53 am 09:53 Sunny 67 19.4 52 11.1 59 59 Calm 30.13 1020 10 16 0.00 0.00
10:53 am 10:53 Sunny 70 21.1 50 10 49 49 ESE 6 9 30.12 1020 10 16 0.00 0.00
11:53 am 11:53 Sunny 74 23.3 51 10.6 45 45 undefined N/A 30.11 1020 10 16 0.00 0.00
12:53 pm 12:53 Sunny 75 23.9 49 9.4 40 40 SE 5 7 30.13 1020 10 16 0.00 0.00
1:53 pm 13:53 Sunny 76 24.4 51 10.6 42 42 VRB 3 6 30.12 1020 10 16 0.00 0.00
2:53 pm 14:53 Mostly Sunny 76 24.4 48 8.9 37 37 Calm 30.10 1019 10 16 0.00 0.00
3:53 pm 15:53 Cloudy 75 23.9 51 10.6 43 43 VRB 6 9 30.09 1019 10 16 0.00 0.00
4:53 pm 16:53 Sunny 78 25.6 50 10 37 37 WSW 6 9 30.09 1019 10 16 0.00 0.00
5:53 pm 17:53 Sunny 77 25 51 10.6 40 40 W 3 6 30.09 1019 10 16 0.00 0.00
6:53 pm 18:53 Sunny 76 24.4 53 11.7 45 45 Calm 30.08 1019 10 16 0.00 0.00
7:53 pm 19:53 Sunny 74 23.3 56 13.3 54 54 Calm 30.08 1019 10 16 0.00 0.00
8:53 pm 20:53 Clear 68 20 59 15 73 73 Calm 30.06 1018 10 16 0.00 0.00
9:53 pm 21:53 Clear 65 18.3 57 13.9 76 76 Calm 30.08 1019 10 16 0.00 0.00
10:53 pm 22:53 Clear 63 17.2 57 13.9 81 81 Calm 30.07 1018 10 16 0.00 0.00
11:53 pm 23:53 Clear 66 18.9 56 13.3 70 70 Calm 30.06 1018 10 16 0.00 0.00

Powered by AerisWeather